SCP
0 0 0 -0 -0 0 0 0 0 0 0 -0 -0 0 0 0 0 0 0 -0 -0 -0 -0 -0 0 -0 0 0 -0 -0 -0 0 0 -0 -0 -0 0 -0 -0 -0 -0 0 0
-0 0 0 -0 -0 0 0 0 0 0 0 0 0 0 0 0 0 0 -0 -0 -0 -0 0 0 0 -0 0 0 0 0 0 -0 -0 -0 -0 -0 -0 -0 -0 -0 -0 -0 0
-0 -0 -0 0 0 0 0 0 -0 0 0 0 -0 -0 -0 -0 -0 -0 -0 -0 0 -0 0 0 -0 0 0 0 0 -0 0 0 0 -0 -0 -0 -0 -0 0 -0 -0 -0 -0
-0 -0 0 0 0 -0 -0 0 -0 -0 -0 -0 -0 -0 -0 -0 -0 -0 -0 -0 0 0 -0 -0 -0 0 0 0 0 0 0 0 0 -0 -0 -0 -0 -0 0 -0 -0 -0 0
-0 0 0 0 0 -0 -0 -0 -0 -0 -0 -0 -0 -0 -0 -0 -0 -0 -0 -0 0 -0 -0 -0 -0 0 0 0 0 0 0 0 0 0 0 -0 -0 -0 0 0 0 0 -0
0 0 0 0 0 0 -0 -0 0 0 -0 -0 -0 -0 -0 -0 -0 -0 -0 0 -0 -0 -0 -0 0 0 0 0 0 0 0 0 0 0 0 0 -0 -0 0 0 0 0 0
0 0 0 0 0 0 -0 -0 -0 -0 -0 -0 -0 -0 -0 -0 -0 -0 -0 -0 -0 -0 -0 0 0 0 0 0 0 0 0 0 0 0 -0 -0 -0 -0 -0 0 0 0 0
0 0 0 0 0 0 0 -0 -0 0 0 -0 -0 -0 -0 -0 0 0 0 0 -0 -0 -0 -0 0 0 0 0 0 0 0 0 0 0 0 0 0 -0 0 0 0 0 0
0 0 0 0 0 0 0 0 -0 -0 -0 -0 -0 0 0 0 0 0 0 0 0 0 0 0 0 0 0 0 0 0 0 0 0 0 0 0 0 0 0 0 0 0 0
0 0 0 0 0 0 0 0 0 0 0 0 0 0 0 0 0 0 0 0 0 0 0 0 0 0 -0 0 0 0 0 0 0 0 0 0 -0 0 0 0 0 0 0
0 0 0 0 0 0 0 0 0 0 0 0 0 0 0 0 0 0 0 0 0 0 0 0 0 0 0 0 0 0 0 0 0 0 0 0 0 0 0 0 0 0 0
0 0 0 0 0 0 0 0 0 0 0 0 0 0 0 0 0 0 0 0 0 0 0 0 0 0 0 0 0 0 0 0 0 0 0 0 0 0 0 0 0 0 0
0 0 0 0 0 0 0 0 0 0 0 0 0 0 0 0 0 0 0 0 0 0 0 0 0 0 0 0 0 0 0 0 0 0 0 0 0 0 0 0 0 0 0
0 0 0 0 0 0 0 0 0 0 0 0 0 0 0 0 0 0 0 0 0 0 0 0 0 0 0 0 0 0 0 0 0 0 0 0 0 0 0 0 0 0 0
0 0 0 0 0 0 0 0 0 0 0 0 0 0 0 0 0 0 0 0 0 0 0 0 0 0 0 0 0 0 0 0 0 0 0 0 0 0 0 0 0 0 0
0 0 0 0 0 0 0 0 0 0 0 0 0 0 0 0 0 0 0 0 0 0 0 0 0 0 0 0 0 0 0 0 0 0 0 0 0 0 0 0 0 0 0
0 0 0 0 0 0 0 0 0 0 0 0 0 0 0 0 0 0 0 0 0 0 0 0 0 0 0 0 0 0 0 0 0 0 0 0 0 0 0 0 0 0 0
0 0 0 0 0 0 0 0 0 0 0 0 0 0 0 0 0 0 0 0 0 0 0 0 0 0 0 0 0 0 0 0 0 0 0 0 0 0 0 0 0 0 0
0 0 0 0 0 0 0 0 0 0 0 0 0 0 0 0 0 0 0 0 0 0 0 0 0 0 0 0 0 0 0 0 0 0 0 0 0 0 0 0 0 0 0
0 0 0 0 0 0 0 0 0 0 0 0 0 0 0 0 0 0 0 0 0 0 0 0 0 0 0 0 0 0 0 0 0 0 0 0 0 0 0 0 0 0 0
0 0 0 0 0 0 0 0 0 0 0 0 0 0 0 0 0 0 0 0 0 0 0 0 0 0 0 0 0 0 0 0 0 0 0 0 0 0 0 0 0 0 0
0 0 0 0 0 0 0 0 0 0 0 0 0 0 0 0 0 0 0 0 0 0 0 0 0 0 0 0 0 0 0 0 0 0 0 0 0 0 0 0 0 0 0
0 0 0 0 0 0 0 0 0 0 0 0 0 0 0 0 0 0 0 0 0 0 0 0 0 0 0 0 0 0 0 0 0 0 0 0 0 0 0 0 0 0 0
0 0 0 0 0 0 0 0 0 0 0 0 0 0 0 0 0 0 0 0 0 0 0 0 0 0 0 0 0 0 0 0 0 0 0 0 0 0 0 0 0 0 0
0 0 0 0 0 0 0 0 0 0 0 0 0 0 0 0 0 0 0 0 0 0 0 0 0 0 0 0 0 0 0 0 0 0 0 0 0 0 0 0 0 0 0
0 0 0 0 0 0 0 0 0 0 0 0 0 0 0 0 0 0 0 0 0 0 0 0 0 0 0 0 0 0 0 0 0 0 0 0 0 0 0 0 0 0 0
Wind_Speed_500mb
45 38 36 33 27 25 28 23 24 28 27 22 24 23 18 13 11 11 13 16 19 21 21 20 20 22 19 16 20 17 18 16 16 21 24 22 20 22 25 25 24 22 22
46 42 37 35 28 26 29 22 21 24 32 24 21 19 15 12 11 12 13 15 17 19 19 19 20 20 21 20 20 20 21 20 16 15 13 20 17 17 20 18 19 19 20
43 42 39 36 31 27 27 25 21 22 23 20 17 17 15 13 12 12 13 13 15 16 17 18 17 16 19 22 22 23 23 21 20 18 18 20 18 19 16 13 13 13 14
43 42 40 40 33 29 26 27 21 20 20 18 16 14 13 11 10 10 10 9 11 13 14 14 14 12 15 17 19 20 19 18 18 19 19 19 20 21 17 15 13 11 9
44 40 38 39 33 30 27 26 25 21 17 15 12 11 11 10 9 8 6 5 6 9 8 9 8 9 11 11 12 14 14 13 13 14 15 16 15 17 16 15 14 11 7
45 41 37 36 34 32 28 26 26 23 17 14 11 11 10 8 6 6 5 4 3 3 3 3 3 5 6 7 7 8 9 9 10 10 10 9 10 10 11 11 11 10 8
45 40 35 34 32 30 29 26 24 22 19 16 12 10 9 9 9 8 6 5 3 2 1 1 2 3 4 6 8 10 10 10 10 9 9 8 8 7 7 8 9 9 9
42 40 35 32 30 29 26 25 24 23 19 16 14 12 11 10 10 11 10 8 6 6 6 6 6 6 7 10 11 11 12 13 14 13 13 13 12 11 11 11 12 12 11
39 37 35 32 30 29 28 27 25 22 21 20 19 17 16 15 15 14 14 12 12 12 11 10 10 11 12 13 14 16 17 17 17 17 17 17 16 15 15 16 16 17 16
40 38 35 33 31 28 28 28 28 27 25 22 22 21 20 19 19 19 18 17 17 16 15 15 15 15 15 16 17 19 20 21 22 21 20 20 20 18 18 19 20 20 20
43 41 38 35 33 32 31 29 30 31 30 28 26 26 26 25 23 21 20 20 19 18 16 17 16 17 18 18 19 21 22 24 25 24 22 22 21 22 22 22 22 24 24
46 47 45 41 37 34 32 32 33 33 32 32 31 30 28 25 22 22 22 20 19 19 18 19 19 20 20 22 23 25 24 24 25 24 25 26 27 27 28 27 27 28 28
42 44 46 45 42 41 37 34 35 36 37 37 36 34 33 31 29 28 27 27 25 23 23 23 24 25 26 27 27 28 28 29 29 29 29 30 30 31 31 31 31 30 31
43 40 41 43 45 45 42 41 39 39 39 39 37 37 38 36 35 34 33 32 33 31 30 29 31 32 33 33 33 32 33 33 34 35 34 32 32 33 33 32 31 31 32
37 39 40 40 40 41 43 42 42 41 41 38 40 41 41 41 40 39 38 37 37 37 36 36 38 39 39 38 39 40 37 38 39 39 38 35 36 36 36 35 36 36 39
27 32 36 40 42 43 44 43 42 44 41 42 42 41 43 43 43 44 43 43 43 41 41 43 44 45 46 45 45 44 45 44 43 43 42 41 38 39 39 40 42 43 44
34 33 34 37 42 47 46 46 46 44 45 48 46 44 45 46 46 47 48 48 46 44 46 48 49 50 52 50 52 49 48 47 48 48 46 45 43 42 44 45 46 47 49
40 41 39 41 43 46 49 49 48 48 49 50 50 48 49 49 49 49 52 50 46 46 49 51 52 54 55 54 54 53 52 51 52 53 52 49 47 47 48 47 48 51 50
42 44 44 44 44 46 49 51 52 54 55 55 54 54 54 53 53 56 56 54 50 50 53 53 56 56 59 58 57 58 57 58 57 57 57 54 51 50 51 49 49 48 43
34 39 43 45 45 45 47 52 57 59 61 62 62 60 58 58 57 60 63 62 59 59 59 58 60 60 63 64 63 66 67 63 66 65 63 61 57 55 53 50 48 41 36
38 39 39 45 45 48 50 53 56 59 59 60 62 62 61 60 59 61 65 67 65 65 63 64 65 67 69 68 67 73 73 73 71 70 64 62 59 55 51 44 38 35 34
33 41 40 36 39 43 49 55 56 58 58 57 56 56 53 54 55 56 58 62 64 64 64 66 67 72 74 74 71 67 54 63 68 60 51 47 50 48 42 37 36 38 40
22 27 37 37 36 35 33 39 47 54 60 60 60 56 54 51 51 51 52 53 56 60 62 63 65 68 69 69 68 57 27 30 43 47 39 37 36 38 41 38 36 41 45
24 21 15 26 29 29 32 33 37 43 49 51 56 56 56 56 55 56 56 57 58 59 62 61 62 66 68 70 71 74 77 68 39 43 44 44 46 49 51 45 48 46 49
25 23 20 14 11 16 22 27 32 38 42 44 48 51 51 52 54 54 56 59 62 64 67 67 66 67 67 69 71 72 74 73 71 75 60 59 67 72 68 67 57 55 53
34 26 20 17 16 15 14 15 18 25 30 35 38 43 44 47 49 51 53 56 58 60 61 61 62 65 68 70 71 71 75 68 64 72 78 75 82 74 78 76 69 66 58
Wind_Direction_500mb
173 171 168 166 163 157 145 146 144 137 122 123 138 150 153 143 122 91 85 90 89 89 91 92 91 89 107 94 92 101 102 114 104 97 100 82 65 85 93 86 73 75 68
168 169 170 165 165 157 148 151 148 146 141 145 129 142 141 139 121 101 96 92 92 90 87 80 76 76 79 85 87 92 88 88 97 93 86 86 77 82 94 89 85 78 79
172 167 168 165 166 160 154 158 156 157 154 155 142 134 128 122 117 110 104 100 95 91 85 78 74 73 75 75 80 78 79 83 79 77 74 69 76 74 79 83 86 93 87
173 169 168 165 168 165 163 165 158 153 157 153 147 139 137 129 120 114 111 109 101 94 83 79 73 64 63 63 66 68 71 76 72 68 69 69 67 67 66 68 70 78 96
174 170 171 169 173 171 169 172 170 170 166 165 163 153 147 140 131 131 135 126 109 92 88 77 67 59 58 51 47 50 56 60 60 56 56 57 61 66 57 56 57 60 70
174 173 174 177 176 177 174 177 183 189 188 179 172 175 177 173 166 161 163 151 124 108 96 75 50 44 35 20 18 21 24 32 34 30 30 31 36 41 53 46 44 41 40
176 177 178 182 185 186 181 185 188 191 188 185 187 193 196 203 209 210 205 193 192 196 234 256 307 328 331 325 334 337 341 343 347 344 343 343 343 353 2 11 11 7 4
180 182 183 186 191 195 197 196 199 198 201 209 217 223 228 229 233 232 235 238 245 251 257 267 270 279 285 291 296 299 307 315 317 316 314 311 313 318 321 323 326 330 331
186 190 190 193 195 200 205 210 214 214 219 226 230 235 238 242 239 238 243 250 254 259 263 269 274 278 278 278 283 289 295 297 296 297 298 298 294 300 306 305 298 306 308
195 198 201 202 203 209 213 216 222 228 233 235 236 242 246 245 244 248 252 254 256 262 266 269 272 276 282 285 285 287 289 291 291 291 290 287 284 285 292 295 296 292 295
200 205 208 213 215 213 217 223 229 233 237 241 241 244 249 249 250 252 253 255 256 259 264 268 273 277 279 282 283 284 286 285 285 286 284 286 287 284 287 290 291 290 292
205 208 211 216 220 224 228 230 233 237 242 247 247 250 256 253 255 257 255 257 261 262 265 268 272 277 281 284 286 287 288 288 286 282 282 283 284 285 286 288 287 287 289
214 213 216 219 223 227 231 237 243 246 247 247 248 251 257 257 256 258 258 260 266 270 270 273 273 278 283 285 283 285 286 286 285 281 279 278 280 282 284 285 285 286 288
223 224 224 226 230 232 238 241 243 247 251 256 259 259 260 262 262 262 264 266 268 270 273 275 275 277 280 282 282 282 284 285 283 280 278 277 279 281 282 283 284 286 288
234 232 232 233 235 237 242 246 248 250 253 257 259 260 260 262 265 268 269 270 271 271 273 275 276 277 278 281 280 281 282 282 281 281 280 278 277 278 279 280 282 284 286
248 243 241 241 241 243 247 250 253 255 259 260 261 263 265 265 265 267 269 270 270 272 274 276 276 276 277 278 279 280 281 281 280 279 278 277 277 276 278 280 281 282 284
261 258 251 250 249 249 251 254 255 258 260 261 263 264 264 265 266 267 269 270 272 274 275 275 276 277 276 277 279 280 280 281 280 278 277 277 278 277 277 277 279 281 282
263 262 262 258 257 256 256 259 261 261 260 263 263 264 263 264 266 267 269 272 275 273 273 273 275 276 277 279 281 281 280 277 276 276 276 277 278 278 277 276 277 280 280
275 270 267 265 264 263 262 263 264 264 264 266 266 264 262 263 265 267 270 273 275 273 272 275 276 277 280 280 282 282 279 277 276 276 276 276 278 277 276 274 279 280 275
283 274 268 266 267 269 266 263 263 264 264 264 265 266 267 266 268 270 272 274 274 274 273 274 276 279 279 281 282 282 281 279 279 277 278 279 278 275 270 271 274 271 267
280 278 279 267 265 264 264 263 263 266 270 272 274 275 274 273 274 274 275 275 276 276 278 277 276 275 276 278 280 282 284 282 280 279 279 277 274 268 262 265 266 266 267
284 271 266 272 269 273 269 266 268 274 275 277 278 277 277 277 277 277 277 278 278 278 278 278 279 279 277 274 272 278 289 285 283 284 278 273 267 259 251 256 265 267 269
312 297 264 258 261 269 275 273 270 268 271 274 278 285 290 289 287 284 283 282 281 281 280 281 282 282 280 278 274 262 259 264 284 286 281 272 263 252 251 265 269 272 272
11 1 315 271 272 272 268 268 272 276 277 282 284 284 283 284 284 284 284 283 283 282 282 284 283 282 281 277 275 271 268 261 263 284 273 268 265 259 263 254 282 277 273
26 20 16 8 329 297 287 284 281 282 286 289 290 291 292 290 290 288 286 286 285 283 281 279 280 281 281 279 277 275 275 271 267 257 264 264 266 268 268 268 272 273 272
39 34 29 16 9 358 350 344 333 319 312 306 305 302 301 298 296 294 294 292 289 287 285 284 281 279 279 280 279 276 272 261 264 256 257 256 265 272 276 274 271 271 270
Wind_Speed_850mb
45 38 36 33 27 25 28 23 24 28 27 22 24 23 18 13 11 11 13 16 19 21 21 20 20 22 19 16 20 17 18 16 16 21 24 22 20 22 25 25 24 22 22
46 42 37 35 28 26 29 22 21 24 32 24 21 19 15 12 11 12 13 15 17 19 19 19 20 20 21 20 20 20 21 20 16 15 13 20 17 17 20 18 19 19 20
43 42 39 36 31 27 27 25 21 22 23 20 17 17 15 13 12 12 13 13 15 16 17 18 17 16 19 22 22 23 23 21 20 18 18 20 18 19 16 13 13 13 14
43 42 40 40 33 29 26 27 21 20 20 18 16 14 13 11 10 10 10 9 11 13 14 14 14 12 15 17 19 20 19 18 18 19 19 19 20 21 17 15 13 11 9
44 40 38 39 33 30 27 26 25 21 17 15 12 11 11 10 9 8 6 5 6 9 8 9 8 9 11 11 12 14 14 13 13 14 15 16 15 17 16 15 14 11 7
45 41 37 36 34 32 28 26 26 23 17 14 11 11 10 8 6 6 5 4 3 3 3 3 3 5 6 7 7 8 9 9 10 10 10 9 10 10 11 11 11 10 8
45 40 35 34 32 30 29 26 24 22 19 16 12 10 9 9 9 8 6 5 3 2 1 1 2 3 4 6 8 10 10 10 10 9 9 8 8 7 7 8 9 9 9
42 40 35 32 30 29 26 25 24 23 19 16 14 12 11 10 10 11 10 8 6 6 6 6 6 6 7 10 11 11 12 13 14 13 13 13 12 11 11 11 12 12 11
39 37 35 32 30 29 28 27 25 22 21 20 19 17 16 15 15 14 14 12 12 12 11 10 10 11 12 13 14 16 17 17 17 17 17 17 16 15 15 16 16 17 16
40 38 35 33 31 28 28 28 28 27 25 22 22 21 20 19 19 19 18 17 17 16 15 15 15 15 15 16 17 19 20 21 22 21 20 20 20 18 18 19 20 20 20
43 41 38 35 33 32 31 29 30 31 30 28 26 26 26 25 23 21 20 20 19 18 16 17 16 17 18 18 19 21 22 24 25 24 22 22 21 22 22 22 22 24 24
46 47 45 41 37 34 32 32 33 33 32 32 31 30 28 25 22 22 22 20 19 19 18 19 19 20 20 22 23 25 24 24 25 24 25 26 27 27 28 27 27 28 28
42 44 46 45 42 41 37 34 35 36 37 37 36 34 33 31 29 28 27 27 25 23 23 23 24 25 26 27 27 28 28 29 29 29 29 30 30 31 31 31 31 30 31
43 40 41 43 45 45 42 41 39 39 39 39 37 37 38 36 35 34 33 32 33 31 30 29 31 32 33 33 33 32 33 33 34 35 34 32 32 33 33 32 31 31 32
37 39 40 40 40 41 43 42 42 41 41 38 40 41 41 41 40 39 38 37 37 37 36 36 38 39 39 38 39 40 37 38 39 39 38 35 36 36 36 35 36 36 39
27 32 36 40 42 43 44 43 42 44 41 42 42 41 43 43 43 44 43 43 43 41 41 43 44 45 46 45 45 44 45 44 43 43 42 41 38 39 39 40 42 43 44
34 33 34 37 42 47 46 46 46 44 45 48 46 44 45 46 46 47 48 48 46 44 46 48 49 50 52 50 52 49 48 47 48 48 46 45 43 42 44 45 46 47 49
40 41 39 41 43 46 49 49 48 48 49 50 50 48 49 49 49 49 52 50 46 46 49 51 52 54 55 54 54 53 52 51 52 53 52 49 47 47 48 47 48 51 50
42 44 44 44 44 46 49 51 52 54 55 55 54 54 54 53 53 56 56 54 50 50 53 53 56 56 59 58 57 58 57 58 57 57 57 54 51 50 51 49 49 48 43
34 39 43 45 45 45 47 52 57 59 61 62 62 60 58 58 57 60 63 62 59 59 59 58 60 60 63 64 63 66 67 63 66 65 63 61 57 55 53 50 48 41 36
38 39 39 45 45 48 50 53 56 59 59 60 62 62 61 60 59 61 65 67 65 65 63 64 65 67 69 68 67 73 73 73 71 70 64 62 59 55 51 44 38 35 34
33 41 40 36 39 43 49 55 56 58 58 57 56 56 53 54 55 56 58 62 64 64 64 66 67 72 74 74 71 67 54 63 68 60 51 47 50 48 42 37 36 38 40
22 27 37 37 36 35 33 39 47 54 60 60 60 56 54 51 51 51 52 53 56 60 62 63 65 68 69 69 68 57 27 30 43 47 39 37 36 38 41 38 36 41 45
24 21 15 26 29 29 32 33 37 43 49 51 56 56 56 56 55 56 56 57 58 59 62 61 62 66 68 70 71 74 77 68 39 43 44 44 46 49 51 45 48 46 49
25 23 20 14 11 16 22 27 32 38 42 44 48 51 51 52 54 54 56 59 62 64 67 67 66 67 67 69 71 72 74 73 71 75 60 59 67 72 68 67 57 55 53
34 26 20 17 16 15 14 15 18 25 30 35 38 43 44 47 49 51 53 56 58 60 61 61 62 65 68 70 71 71 75 68 64 72 78 75 82 74 78 76 69 66 58
Wind_Direction_850mb
173 171 168 166 163 157 145 146 144 137 122 123 138 150 153 143 122 91 85 90 89 89 91 92 91 89 107 94 92 101 102 114 104 97 100 82 65 85 93 86 73 75 68
168 169 170 165 165 157 148 151 148 146 141 145 129 142 141 139 121 101 96 92 92 90 87 80 76 76 79 85 87 92 88 88 97 93 86 86 77 82 94 89 85 78 79
172 167 168 165 166 160 154 158 156 157 154 155 142 134 128 122 117 110 104 100 95 91 85 78 74 73 75 75 80 78 79 83 79 77 74 69 76 74 79 83 86 93 87
173 169 168 165 168 165 163 165 158 153 157 153 147 139 137 129 120 114 111 109 101 94 83 79 73 64 63 63 66 68 71 76 72 68 69 69 67 67 66 68 70 78 96
174 170 171 169 173 171 169 172 170 170 166 165 163 153 147 140 131 131 135 126 109 92 88 77 67 59 58 51 47 50 56 60 60 56 56 57 61 66 57 56 57 60 70
174 173 174 177 176 177 174 177 183 189 188 179 172 175 177 173 166 161 163 151 124 108 96 75 50 44 35 20 18 21 24 32 34 30 30 31 36 41 53 46 44 41 40
176 177 178 182 185 186 181 185 188 191 188 185 187 193 196 203 209 210 205 193 192 196 234 256 307 328 331 325 334 337 341 343 347 344 343 343 343 353 2 11 11 7 4
180 182 183 186 191 195 197 196 199 198 201 209 217 223 228 229 233 232 235 238 245 251 257 267 270 279 285 291 296 299 307 315 317 316 314 311 313 318 321 323 326 330 331
186 190 190 193 195 200 205 210 214 214 219 226 230 235 238 242 239 238 243 250 254 259 263 269 274 278 278 278 283 289 295 297 296 297 298 298 294 300 306 305 298 306 308
195 198 201 202 203 209 213 216 222 228 233 235 236 242 246 245 244 248 252 254 256 262 266 269 272 276 282 285 285 287 289 291 291 291 290 287 284 285 292 295 296 292 295
200 205 208 213 215 213 217 223 229 233 237 241 241 244 249 249 250 252 253 255 256 259 264 268 273 277 279 282 283 284 286 285 285 286 284 286 287 284 287 290 291 290 292
205 208 211 216 220 224 228 230 233 237 242 247 247 250 256 253 255 257 255 257 261 262 265 268 272 277 281 284 286 287 288 288 286 282 282 283 284 285 286 288 287 287 289
214 213 216 219 223 227 231 237 243 246 247 247 248 251 257 257 256 258 258 260 266 270 270 273 273 278 283 285 283 285 286 286 285 281 279 278 280 282 284 285 285 286 288
223 224 224 226 230 232 238 241 243 247 251 256 259 259 260 262 262 262 264 266 268 270 273 275 275 277 280 282 282 282 284 285 283 280 278 277 279 281 282 283 284 286 288
234 232 232 233 235 237 242 246 248 250 253 257 259 260 260 262 265 268 269 270 271 271 273 275 276 277 278 281 280 281 282 282 281 281 280 278 277 278 279 280 282 284 286
248 243 241 241 241 243 247 250 253 255 259 260 261 263 265 265 265 267 269 270 270 272 274 276 276 276 277 278 279 280 281 281 280 279 278 277 277 276 278 280 281 282 284
261 258 251 250 249 249 251 254 255 258 260 261 263 264 264 265 266 267 269 270 272 274 275 275 276 277 276 277 279 280 280 281 280 278 277 277 278 277 277 277 279 281 282
263 262 262 258 257 256 256 259 261 261 260 263 263 264 263 264 266 267 269 272 275 273 273 273 275 276 277 279 281 281 280 277 276 276 276 277 278 278 277 276 277 280 280
275 270 267 265 264 263 262 263 264 264 264 266 266 264 262 263 265 267 270 273 275 273 272 275 276 277 280 280 282 282 279 277 276 276 276 276 278 277 276 274 279 280 275
283 274 268 266 267 269 266 263 263 264 264 264 265 266 267 266 268 270 272 274 274 274 273 274 276 279 279 281 282 282 281 279 279 277 278 279 278 275 270 271 274 271 267
280 278 279 267 265 264 264 263 263 266 270 272 274 275 274 273 274 274 275 275 276 276 278 277 276 275 276 278 280 282 284 282 280 279 279 277 274 268 262 265 266 266 267
284 271 266 272 269 273 269 266 268 274 275 277 278 277 277 277 277 277 277 278 278 278 278 278 279 279 277 274 272 278 289 285 283 284 278 273 267 259 251 256 265 267 269
312 297 264 258 261 269 275 273 270 268 271 274 278 285 290 289 287 284 283 282 281 281 280 281 282 282 280 278 274 262 259 264 284 286 281 272 263 252 251 265 269 272 272
11 1 315 271 272 272 268 268 272 276 277 282 284 284 283 284 284 284 284 283 283 282 282 284 283 282 281 277 275 271 268 261 263 284 273 268 265 259 263 254 282 277 273
26 20 16 8 329 297 287 284 281 282 286 289 290 291 292 290 290 288 286 286 285 283 281 279 280 281 281 279 277 275 275 271 267 257 264 264 266 268 268 268 272 273 272
39 34 29 16 9 358 350 344 333 319 312 306 305 302 301 298 296 294 294 292 289 287 285 284 281 279 279 280 279 276 272 261 264 256 257 256 265 272 276 274 271 271 270